This is the latest recevied weather packets stored in our database for station/object K9MWD. If no packets are shown the sender has not sent any weather packets the latest 10 day(s).
| Time | Temp. | Humidity | Pressure | Rain* | Wind** | Luminosity | Snow |
|---|---|---|---|---|---|---|---|
| 1777489500 | 14.44° C | 92% | 1014 hPa | 28.7 mm | - | 32 W/m² | - |
| 1777489196 | 15° C | 91% | 1014.3 hPa | 8.89 mm | - | 41 W/m² | - |
| 1777488893 | 15° C | 91% | 1014.6 hPa | 3.05 mm | - | 34 W/m² | - |
| 1777488590 | 15° C | 91% | 1015.2 hPa | 0 mm | - | 22 W/m² | - |
| 1777488288 | 15° C | 91% | 1014.1 hPa | 0 mm | - | 41 W/m² | - |
| 1777487986 | 15° C | 91% | 1014 hPa | 0 mm | - | 35 W/m² | - |
| 1777487684 | 15° C | 91% | 1015 hPa | 0 mm | - | 29 W/m² | - |
| 1777487380 | 15° C | 91% | 1015.2 hPa | 0 mm | - | 32 W/m² | - |
| 1777487078 | 15° C | 90% | 1014.6 hPa | 0 mm | - | 50 W/m² | - |
| 1777486773 | 15° C | 90% | 1014.5 hPa | 0 mm | - | 69 W/m² | - |
| 1777486472 | 15° C | 90% | 1014.6 hPa | 0 mm | - | 86 W/m² | - |
| 1777486169 | 15° C | 89% | 1014.7 hPa | 0 mm | - | 96 W/m² | - |
| 1777485866 | 15° C | 89% | 1014.8 hPa | 0 mm | - | 84 W/m² | - |
| 1777485561 | 15.56° C | 88% | 1015 hPa | 0 mm | - | 121 W/m² | - |
| 1777485258 | 15.56° C | 86% | 1015.3 hPa | 0 mm | - | 131 W/m² | - |
| 1777484954 | 15.56° C | 85% | 1015.7 hPa | 0 mm | - | 88 W/m² | - |
| 1777484651 | 16.11° C | 84% | 1015.6 hPa | 0 mm | - | 93 W/m² | - |
| 1777484348 | 16.11° C | 84% | 1015.8 hPa | 0 mm | - | 68 W/m² | - |
| 1777484043 | 16.11° C | 84% | 1015.7 hPa | 0 mm | - | 63 W/m² | - |
| 1777483740 | 16.11° C | 84% | 1015.6 hPa | 0 mm | - | 69 W/m² | - |
| 1777483436 | 16.11° C | 84% | 1015.6 hPa | 0 mm | - | 63 W/m² | - |
| 1777483131 | 16.11° C | 84% | 1015.5 hPa | 0 mm | - | 58 W/m² | - |
| 1777482829 | 16.11° C | 84% | 1015 hPa | 0 mm | - | 83 W/m² | - |
| 1777482524 | 16.11° C | 83% | 1015 hPa | 0 mm | - | 81 W/m² | - |
| 1777482222 | 16.11° C | 83% | 1015.2 hPa | 0 mm | - | 152 W/m² | - |
* Rain latest hour (hover to see other rain measurements)
** Current wind speed in m/s (hover to see current wind gust speed)